Location: Dumpton Point
(51.3500°N, 1.4433°E)
Time: 22:49:00
(UTC+00:00)

Vanguard 1 - Pass Details

Date: 30 September 2022
Orbit: 650 x 3831 km, 34.2° (Epoch: 03 December)

Event Time Altitude Azimuth Distance (km) Brightness Sun altitude
Rises 12:39:28 0° 204° (SSW) 7,363 15.6 34.5°
Reaches altitude 10° 12:47:25 10° 189° (S) 5,754 15.4 34.1°
Maximum altitude 12:56:08 17° 156° (SSE) 4,351 14.2 33.6°
Drops below altitude 10° 13:02:43 10° 122° (ESE) 4,169 13.5 33.2°
Sets 13:06:57 0° 102° (ESE) 4,645 13.4 32.9°
